EW9221 Weather Reports


time (UTC)temp
C
wind
direction
speed
KPH
gust
KPH
rain 1hr
cm
rain 24hr
cm
rain mn
cm
humidity
%
barometer
mb
20260506221534 -17 246 1.6 14.5 0.00 0.00 0.00 1008.4
20260506220035 -17 159 3.2 14.5 0.00 0.00 0.00 1008.4
20260506214524 -17 246 4.8 14.5 0.00 0.00 0.00 1008.4
20260506213020 -17 133 0.0 9.7 0.00 0.00 0.00 1008.5
20260506211515 -17 237 4.8 16.1 0.00 0.00 0.00 1008.6
20260506210010 -17 207 1.6 11.3 0.00 0.00 0.00 1008.6
20260506204507 -17 206 8.0 17.7 0.00 0.00 0.00 1008.7
20260506203002 -17 166 3.2 12.9 0.00 0.00 0.00 1009.0
20260506201627 -17 205 3.2 9.7 0.00 0.00 0.00 1009.0
20260506200053 -17 292 6.4 17.7 0.00 0.00 0.00 1009.3
20260506194552 -17 203 3.2 11.3 0.00 0.00 0.00 1009.6
20260506193051 -17 20 3.2 11.3 0.00 0.00 0.00 1010.0
20260506191542 -17 153 3.2 12.9 0.00 0.00 0.00 1010.1
20260506190036 -17 155 4.8 14.5 0.00 0.00 0.00 1010.1
20260506184536 -17 184 4.8 9.7 0.00 0.00 0.00 1010.3
20260506183027 -17 262 1.6 11.3 0.00 0.00 0.00 1010.6
20260506181522 -17 313 3.2 12.9 0.00 0.00 0.00 1010.7
20260506180019 -17 263 6.4 16.1 0.00 0.00 0.00 1010.9
20260506174516 -17 319 3.2 12.9 0.00 0.00 0.00 1010.9
20260506173010 -17 149 4.8 14.5 0.00 0.00 0.00 1011.1
20260506171506 -17 165 3.2 19.3 0.00 0.00 0.00 1011.6
20260506170001 -17 304 3.2 12.9 0.00 0.00 0.00 1011.7
20260506164556 -17 219 6.4 20.9 0.00 0.00 0.00 1011.7
20260506163103 -17 120 1.6 16.1 0.00 0.00 0.00 1012.0
20260506161548 -17 236 6.4 16.1 0.00 0.00 0.00 1012.2
20260506160046 -17 240 4.8 12.9 0.00 0.00 0.00 1012.2
20260506154545 -17 209 6.4 12.9 0.00 0.00 0.00 1012.1
20260506153039 -17 223 3.2 17.7 0.00 0.00 0.00 1012.2
20260506151530 -17 163 1.6 12.9 0.00 0.00 0.00 1012.1
20260506150026 -17 269 8.0 19.3 0.00 0.00 0.00 1012.1
20260506144521 -17 143 3.2 14.5 0.00 0.00 0.00 1011.8
20260506143017 -17 191 8.0 17.7 0.00 0.00 0.00 1011.7
20260506141512 -17 174 8.0 16.1 0.00 0.00 0.00 1011.7
20260506140008 -17 209 3.2 17.7 0.00 0.00 0.00 1011.8
20260506134504 -17 184 8.0 17.7 0.00 0.00 0.00 1011.8
20260506133104 -17 153 6.4 17.7 0.00 0.00 0.00 1012.0
20260506131557 -17 104 3.2 12.9 0.00 0.00 0.00 1011.8
20260506130053 -17 200 4.8 9.7 0.00 0.00 0.00 1011.7
20260506124546 -17 256 4.8 11.3 0.00 0.00 0.00 1011.5
20260506123042 -17 205 1.6 6.4 0.00 0.00 0.00 1011.3
20260506121537 -17 172 1.6 8.0 0.00 0.00 0.00 1011.1
20260506120035 -17 200 0.0 1.6 0.00 0.00 0.00 1011.0
20260506114529 -17 210 0.0 1.6 0.00 0.00 0.00 1011.0
20260506113025 -17 0.0 0.0 0.00 0.00 0.00 1011.0
20260506111526 -17 0.0 0.0 0.00 0.00 0.00 1010.9
20260506110016 -17 0.0 0.0 0.00 0.00 0.00 1010.6
20260506104511 -17 0.0 0.0 0.00 0.00 0.00 1010.5
20260506103008 -17 0.0 0.0 0.00 0.00 0.00 1010.3
20260506101502 -17 0.0 0.0 0.00 0.00 0.00 1010.1
20260506100059 -17 0.0 0.0 0.00 0.00 0.00 1010.5
20260506094555 -17 0.0 0.0 0.00 0.00 0.00 1010.6
20260506093107 -17 0.0 0.0 0.00 0.00 0.00 1010.4
20260506091547 -17 0.0 0.0 0.00 0.00 0.00 1010.1
20260506090044 -17 0.0 0.0 0.00 0.00 0.00 1010.1
20260506084537 -17 221 0.0 0.0 0.00 0.00 0.00 1010.2
20260506083037 -17 221 0.0 0.0 0.00 0.00 0.00 1010.1
20260506081528 -17 221 0.0 0.0 0.00 0.00 0.00 1010.1
20260506073015 -17 159 0.0 4.8 0.00 0.00 0.00 1009.8
20260506071509 -17 169 0.0 0.0 0.00 0.00 0.00 1010.1
20260506061601 -17 230 0.0 0.0 0.00 0.00 0.00 1010.6
20260506044527 -17 223 0.0 0.0 0.00 0.00 0.00 1011.3
20260506043021 -17 223 0.0 0.0 0.00 0.00 0.00 1011.3
20260506041517 -17 225 0.0 0.0 0.00 0.00 0.00 1011.3
20260506040017 -17 225 0.0 0.0 0.00 0.00 0.00 1011.5
20260506034509 -17 218 0.0 0.0 0.00 0.00 0.00 1011.4
20260506033005 -17 163 0.0 0.0 0.00 0.00 0.00 1011.3
20260506031604 -17 163 0.0 0.0 0.00 0.00 0.00 1011.2
20260506030055 -17 199 0.0 1.6 0.00 0.00 0.00 1011.1
20260506024558 -17 211 0.0 1.6 0.00 0.00 0.00 1011.1
20260506023054 -17 228 0.0 3.2 0.00 0.00 0.00 1011.1
20260506021542 -17 157 1.6 8.0 0.00 0.00 0.00 1010.7
20260506020108 -17 207 1.6 8.0 0.00 0.00 0.00 1010.6
20260506014533 -17 136 8.0 17.7 0.00 0.00 0.00 1010.5
20260506013031 -17 153 8.0 16.1 0.00 0.00 0.00 1010.5
20260506011527 -17 152 11.3 17.7 0.00 0.00 0.00 1010.4
20260506010024 -17 128 6.4 16.1 0.00 0.00 0.00 1010.5
20260506004523 -17 136 11.3 20.9 0.00 0.00 0.00 1010.3
20260506003016 -17 142 9.7 22.5 0.00 0.00 0.00 1010.2
20260506001507 -17 130 14.5 24.1 0.00 0.00 0.00 1010.1
20260506000003 -17 117 17.7 24.1 0.00 0.00 0.00 1010.1
20260505234616 -17 137 14.5 24.1 0.00 0.00 0.00 1009.9
20260505233058 -17 119 17.7 24.1 0.00 0.00 0.00 1009.9
20260505231556 -17 112 17.7 24.1 0.00 0.00 0.00 1009.8
20260505230050 -17 106 16.1 27.4 0.00 0.00 0.00 1009.8
20260505224547 -17 117 19.3 25.7 0.00 0.00 0.00 1009.9
20260505223040 -17 124 17.7 27.4 0.00 0.00 0.00 1009.8